Huvudsida
METAR-TAF:

METAR-TAF

Flygplatser :

Namsos flygplats. Høknesøra

Namsos, Norge

latitud: 64-28N, longitud: 011-35E, höjd: 0 m

Aktuellt väderrapport

Denna rapport gjordes för 41 minuter sedan, klockan 09:20 UTC
Vind 11 kt från sydväst
Temperatur 4°C
Fuktighet 87%
Tryck 1007 hPa
Sikt 10 km eller mer
Få moln på en höjd av 1500 ft
Brutna moln på en höjd av 2200 ft
lätta regnskurar

METAR: ENNM 200920Z 22011KT 9999 -SHRA FEW015 BKN022 04/02 Q1007

Tid: 11:01 (10:01 UTC)


TAF: saknas

Aktuella väderrapporter och prognoser från 4000 flygplatser (METAR- och TAF-rapporter).

De tillgängliga stationerna syns som gula och röda prickar på kartan.

För musen över prickarna för att se namnen på stationerna.

Klicka sedan för att få väderrapporter och prognoser.

För att ändra kartan: Klicka på de gröna knapparna med ett svart kors på för att zooma in; den gröna knappen med ett streck på för att zooma ut; eller på de gröna pilarna för angränsande kartor.


METAR-TAF: